GLO2175 SBIL-SBCJ

Flight info

Callsign GLO2175
Flight time N/A
Altitude 34000
Route EDNOB DCT URUVA DCT XODOV DCT ELADI UZ9 SUDRO UL576 ATOGU
Aircraft B738/M-SDE2E3FGHIRWXY/LB1

Departure

Time 2026-04-23 17:29
Airport Bahia - Jorge Amado Airport (SBIL)

Arrival

Time N/A
Airport Carajás Airport (SBCJ)
Time Latitude Longitude Altitude Speed Heading
2026-04-23 17:05 -14.81445 -39.03207 19 ft 0 kts 309°
2026-04-23 17:22 -14.81459 -39.03196 20 ft 2 kts 358°
2026-04-23 17:23 -14.81483 -39.03210 22 ft 2 kts 85°
2026-04-23 17:23 -14.81484 -39.03215 21 ft 0 kts 87°
2026-04-23 17:24 -14.81483 -39.03210 22 ft 3 kts 88°
2026-04-23 17:25 -14.81483 -39.03106 18 ft 7 kts 96°
2026-04-23 17:25 -14.81494 -39.03091 19 ft 1 kts 152°
2026-04-23 17:26 -14.81557 -39.03076 17 ft 8 kts 153°
2026-04-23 17:26 -14.81582 -39.02962 17 ft 11 kts 88°
2026-04-23 17:27 -14.81576 -39.02722 18 ft 18 kts 88°
2026-04-23 17:27 -14.81599 -39.02644 21 ft 7 kts 121°
2026-04-23 17:27 -14.81588 -39.02604 21 ft 3 kts 21°
2026-04-23 17:27 -14.81576 -39.02617 19 ft 3 kts 277°
2026-04-23 17:28 -14.81577 -39.02643 19 ft 7 kts 269°
2026-04-23 17:28 -14.81582 -39.02936 17 ft 81 kts 269°
2026-04-23 17:28 -14.81607 -39.03775 22 ft 150 kts 266°
2026-04-23 17:28 -14.81643 -39.04929 571 ft 166 kts 264°
2026-04-23 17:29 -14.81543 -39.06178 1233 ft 187 kts 282°
2026-04-23 17:29 -14.80951 -39.07431 1998 ft 195 kts 309°
2026-04-23 17:29 -14.78897 -39.09358 3196 ft 222 kts 322°
2026-04-23 17:30 -14.78069 -39.10035 3341 ft 237 kts 321°
2026-04-23 17:30 -14.74864 -39.12864 4267 ft 282 kts 317°
2026-04-23 17:30 -14.73406 -39.14253 5008 ft 288 kts 316°
2026-04-23 17:31 -14.71948 -39.15691 5853 ft 290 kts 315°
2026-04-23 17:31 -14.70494 -39.17160 6697 ft 293 kts 315°
2026-04-23 17:31 -14.69045 -39.18650 7539 ft 296 kts 315°
2026-04-23 17:31 -14.67589 -39.20166 8305 ft 297 kts 315°
2026-04-23 17:32 -14.66125 -39.21702 8996 ft 302 kts 315°
2026-04-23 17:32 -14.64662 -39.23245 9828 ft 302 kts 315°
2026-04-23 17:32 -14.63172 -39.24821 10375 ft 312 kts 315°
2026-04-23 17:32 -14.61625 -39.26458 10551 ft 334 kts 315°
2026-04-23 17:33 -14.59955 -39.28228 10759 ft 353 kts 315°
2026-04-23 17:33 -14.58210 -39.30080 11130 ft 365 kts 315°
2026-04-23 17:33 -14.56428 -39.31972 11717 ft 368 kts 315°
2026-04-23 17:33 -14.54649 -39.33862 12469 ft 367 kts 315°
2026-04-23 17:34 -14.52861 -39.35761 13094 ft 370 kts 315°
2026-04-23 17:34 -14.51063 -39.37670 13713 ft 372 kts 315°
2026-04-23 17:34 -14.47431 -39.41525 14797 ft 377 kts 315°
2026-04-23 17:35 -14.45597 -39.43470 15328 ft 379 kts 315°
2026-04-23 17:35 -14.42521 -39.46732 16178 ft 383 kts 315°
2026-04-23 17:35 -14.40658 -39.48706 16689 ft 386 kts 315°
2026-04-23 17:36 -14.38775 -39.50702 17169 ft 389 kts 315°
2026-04-23 17:36 -14.36260 -39.53367 17785 ft 393 kts 315°
2026-04-23 17:36 -14.34348 -39.55391 18261 ft 396 kts 315°
2026-04-23 17:36 -14.33044 -39.56772 18528 ft 398 kts 315°
2026-04-23 17:37 -14.31002 -39.58669 18849 ft 402 kts 323°
2026-04-23 17:37 -14.28646 -39.60232 19229 ft 404 kts 330°
2026-04-23 17:37 -14.23710 -39.63127 19912 ft 412 kts 332°
2026-04-23 17:38 -14.21206 -39.64580 20255 ft 415 kts 332°
2026-04-23 17:38 -14.18676 -39.66056 20583 ft 419 kts 331°
2026-04-23 17:38 -14.16131 -39.67551 20919 ft 422 kts 332°
2026-04-23 17:38 -14.13564 -39.69067 21248 ft 425 kts 331°
2026-04-23 17:39 -14.10988 -39.70592 21577 ft 429 kts 332°
2026-04-23 17:39 -14.08391 -39.72131 21888 ft 432 kts 332°
2026-04-23 17:39 -14.05775 -39.73683 22190 ft 435 kts 331°
2026-04-23 17:39 -14.04919 -39.74191 22301 ft 436 kts 331°